Weather reports worldwide

Advertisment
Leutkirch-Herlazhofen, Germany (10945): temperature & dewpoint: 16.06.2018 15:00:00 - 22.06.2018 15:00:00 (CEST)Leutkirch-Herlazhofen, Germany (10945): temperature 5cm & temperature -5cm: 16.06.2018 15:00:00 - 22.06.2018 15:00:00 (CEST)Leutkirch-Herlazhofen, Germany (10945): temperature -20cm & temperature -100cm: 16.06.2018 15:00:00 - 22.06.2018 15:00:00 (CEST)Leutkirch-Herlazhofen, Germany (10945): wind speed & gusts: 16.06.2018 15:00:00 - 22.06.2018 15:00:00 (CEST)Leutkirch-Herlazhofen, Germany (10945): wind direction: 16.06.2018 15:00:00 - 22.06.2018 15:00:00 (CEST)Leutkirch-Herlazhofen, Germany (10945): reduced air pressure: 16.06.2018 15:00:00 - 22.06.2018 15:00:00 (CEST)Leutkirch-Herlazhofen, Germany (10945): visibility: 16.06.2018 15:00:00 - 22.06.2018 15:00:00 (CEST)Leutkirch-Herlazhofen, Germany (10945): sunshine duration: 16.06.2018 15:00:00 - 22.06.2018 15:00:00 (CEST)Leutkirch-Herlazhofen, Germany (10945): precipitation: 16.06.2018 15:00:00 - 22.06.2018 15:00:00 (CEST)
Date & Time tt [°C] td [°C] tt 5cm [°C] tt -5cm [°C] tt -20cm [°C] tt -100cm [°C] ff [km/h] ff [kn] fx [km/h] fx [kn] dd ppp [hPa] vv [km] sd [min] rr [mm]
22.06.2018 15:00:00 14,5 3,7 15,6 24,3 21,1 16,8 16 8 31 17 W 1023,1 49 9 0,0
22.06.2018 14:00:00 14,9 3,9 18,4 24,6 20,8 16,8 17 9 32 18 W 1023,1 39 22 0,0
22.06.2018 13:00:00 14,8 4,1 19,0 24,9 20,5 16,8 17 9 37 20 W 1023,4 26 46 0,0
22.06.2018 12:00:00 13,7 2,5 17,9 23,5 20,2 16,8 22 12 36 19 WNW 1023,8 19 57 0,0
22.06.2018 11:00:00 12,5 4,2 16,7 22,0 20,1 16,8 16 9 33 18 W 1023,7 23 51 0,0
22.06.2018 10:00:00 11,4 4,6 16,5 19,7 20,1 16,8 13 7 23 12 NW 1024,0 19 59 0,0
22.06.2018 09:00:00 10,8 3,8 14,5 17,5 20,4 16,8 5 3 15 8 NE 1024,0 32 30 0,0
22.06.2018 08:00:00 8,9 3,6 10,0 16,6 20,7 16,7 8 4 16 9 N 1024,6 52 2 0,0
22.06.2018 07:00:00 9,1 3,6 9,7 16,3 21,1 16,7 7 4 13 7 N 1024,3 70 23 0,0
22.06.2018 06:00:00 8,2 3,5 6,2 16,5 21,5 16,7 4 2 8 4 NNE 1024,5 70 6 0,0
22.06.2018 05:00:00 9,2 2,9 7,7 17,1 21,9 16,7 6 3 13 7 N 1024,1 67 0 0,0
22.06.2018 04:00:00 9,8 2,9 7,0 18,0 22,3 16,7 8 4 16 9 N 1023,9 70 0 0,0
22.06.2018 03:00:00 11,4 3,1 9,4 19,2 22,6 16,7 10 5 26 14 N 1022,9 70 0 0,0
22.06.2018 02:00:00 13,2 4,7 12,5 20,2 23,0 16,7 10 5 19 10 NNW 1022,0 70 0 0,0
22.06.2018 01:00:00 14,3 4,4 13,9 20,9 23,3 16,7 12 7 29 15 NNW 1021,0 70 0 0,0
22.06.2018 00:00:00 15,5 5,9 15,0 22,0 23,6 16,7 17 9 29 16 NNW 1020,0 61 0 0,0
21.06.2018 23:00:00 17,2 11,7 16,7 22,9 23,8 16,6 12 6 28 15 NNW 1018,2 63 0 0,0
21.06.2018 22:00:00 18,3 13,0 17,9 23,9 24,0 16,6 13 7 27 14 NNW 1017,0 59 0 0,0
21.06.2018 21:00:00 19,3 13,2 18,8 25,1 24,1 16,6 16 8 30 16 NNW 1016,1 60 1 0,0
21.06.2018 20:00:00 21,2 12,5 21,1 26,3 24,1 16,6 14 8 28 15 NW 1014,6 64 3 0,0
21.06.2018 19:00:00 22,4 12,6 22,7 27,5 23,9 16,6 14 8 32 17 WNW 1014,0 70 9 0,0
21.06.2018 18:00:00 23,2 12,9 24,1 28,8 23,7 16,6 16 9 32 17 NW 1013,6 37 41 0,0
21.06.2018 17:00:00 23,9 13,2 26,0 28,8 23,4 16,6 22 12 37 20 NW 1013,4 16 43 0,0
21.06.2018 16:00:00 25,4 15,6 29,4 28,5 23,2 16,6 17 9 29 16 W 1012,8 19 60 0,0
21.06.2018 15:00:00 21,2 15,7 21,3 27,5 22,8 16,6 16 8 36 19 W 1014,4 27 9 0,2
21.06.2018 14:00:00 24,0 15,5 24,4 29,6 22,3 16,6 22 12 41 22 WSW 1013,6 35 36 0,0
21.06.2018 13:00:00 25,0 14,9 27,9 28,9 21,8 16,5 24 13 36 19 WSW 1013,7 12 51 0,0
21.06.2018 12:00:00 25,2 16,9 29,4 27,3 21,4 16,5 22 12 35 19 W 1014,1 19 60 0,0
21.06.2018 11:00:00 23,7 15,9 26,7 25,0 21,2 16,5 18 10 29 16 SW 1014,5 10 51 0,0
21.06.2018 10:00:00 23,0 16,4 25,3 23,2 21,1 16,5 22 12 31 17 SW 1014,8 13 60 0,0
21.06.2018 09:00:00 21,9 15,2 23,6 21,1 21,2 16,5 16 9 24 13 SW 1015,4 19 59 0,0
21.06.2018 08:00:00 20,6 14,9 21,8 19,5 21,4 16,5 9 5 16 8 SSW 1015,9 29 60 0,0
21.06.2018 07:00:00 17,3 14,1 17,7 18,4 21,7 16,5 10 6 15 8 S 1016,8 24 60 0,0
21.06.2018 06:00:00 14,0 12,8 12,1 18,4 22,1 16,5 5 3 10 5 SSE 1017,7 25 7 0,0
21.06.2018 05:00:00 13,1 12,6 10,2 18,9 22,5 16,5 4 2 5 3 S 1017,9 18 0 0,0
21.06.2018 04:00:00 13,2 12,4 10,6 19,5 22,9 16,4 3 2 7 4 SSW 1018,4 21 0 0,0
21.06.2018 03:00:00 13,6 12,8 10,4 20,2 23,3 16,4 3 2 6 4 SE 1018,6 16 0 0,0
21.06.2018 02:00:00 14,0 13,6 11,2 21,0 23,7 16,4 3 1 5 3 ESE 1018,8 12 0 0,0
21.06.2018 01:00:00 14,5 13,8 11,9 22,0 24,1 16,4 2 1 3 1 NNW 1018,9 16 0 0,0
21.06.2018 00:00:00 15,3 14,4 12,6 23,1 24,4 16,4 3 1 4 2 ESE 1019,2 20 0 0,0
20.06.2018 23:00:00 16,9 14,6 14,1 24,4 24,7 16,4 2 1 5 3 E 1018,9 34 0 0,0
20.06.2018 22:00:00 18,8 15,5 15,7 26,0 24,9 16,4 3 2 10 5 NE 1018,2 17 15 0,0
20.06.2018 21:00:00 23,2 14,9 20,5 27,9 24,9 16,4 6 3 14 7 NE 1016,7 53 60 0,0
20.06.2018 20:00:00 25,0 14,2 25,4 29,8 24,8 16,4 9 5 14 8 NE 1016,3 57 60 0,0
20.06.2018 19:00:00 25,8 14,2 27,9 31,3 24,5 16,4 10 5 18 10 NE 1016,1 37 60 0,0
20.06.2018 18:00:00 26,2 13,8 29,5 32,5 24,0 16,4 9 5 17 9 NE 1016,4 44 60 0,0
20.06.2018 17:00:00 26,3 13,8 30,6 33,2 23,4 16,4 9 5 21 12 NE 1016,8 62 60 0,0
20.06.2018 16:00:00 25,9 13,0 30,8 33,2 22,7 16,4 9 5 21 11 NE 1017,4 39 60 0,0
20.06.2018 15:00:00 25,5 13,0 30,5 32,5 22,0 16,3 10 5 22 12 NNE 1017,7 34 60 0,0
20.06.2018 14:00:00 25,3 14,0 30,3 31,4 21,3 16,3 12 6 24 13 NE 1018,0 22 60 0,0
20.06.2018 13:00:00 24,6 14,1 28,8 29,7 20,7 16,3 11 6 22 12 ENE 1018,7 28 60 0,0
20.06.2018 12:00:00 23,8 12,9 28,0 27,2 20,2 16,3 12 7 24 13 ENE 1019,1 27 60 0,0
20.06.2018 11:00:00 22,6 13,6 26,7 24,5 19,9 16,3 12 7 24 13 ENE 1019,5 21 60 0,0
20.06.2018 10:00:00 21,7 13,8 24,5 21,8 19,8 16,3 14 7 24 13 ENE 1019,7 18 60 0,0
20.06.2018 09:00:00 20,6 14,1 23,3 19,5 19,9 16,3 10 6 14 8 NE 1020,2 30 60 0,0
20.06.2018 08:00:00 17,5 13,3 20,3 17,7 20,1 16,3 5 3 9 5 N 1021,5 15 60 0,0
20.06.2018 07:00:00 14,5 12,1 14,3 16,6 20,4 16,3 2 1 4 2 W 1022,6 15 50 0,0
20.06.2018 06:00:00 10,1 10,0 8,2 16,6 20,8 16,3 2 1 4 2 NW 1023,8 9 8 0,0
20.06.2018 05:00:00 10,7 10,6 8,2 17,2 21,2 16,3 3 1 4 2 SSW 1023,6 8 0 0,0
20.06.2018 04:00:00 10,9 10,8 8,3 17,8 21,6 16,3 3 2 3 2 SW 1023,8 11 0 0,0
20.06.2018 03:00:00 10,9 10,7 8,5 18,5 22,0 16,2 2 1 5 3 WSW 1024,2 14 0 0,0
20.06.2018 02:00:00 11,7 11,0 9,0 19,3 22,4 16,2 2 1 4 2 S 1024,3 25 0 0,0
20.06.2018 01:00:00 12,3 11,7 9,9 20,1 22,8 16,2 2 1 5 3 SSW 1024,3 17 0 0,0
20.06.2018 00:00:00 13,0 12,0 10,5 21,2 23,1 16,2 4 2 6 3 SSW 1024,2 25 0 0,0
19.06.2018 23:00:00 14,7 12,8 12,3 22,4 23,4 16,2 5 3 5 3 ESE 1023,9 39 0 0,0
19.06.2018 22:00:00 16,4 13,5 13,1 23,9 23,6 16,2 3 2 7 4 ENE 1023,3 18 15 0,0
19.06.2018 21:00:00 20,9 12,4 17,7 25,5 23,6 16,2 4 2 11 6 NE 1021,9 70 60 0,0
19.06.2018 20:00:00 22,4 11,9 23,1 27,3 23,6 16,2 7 4 14 8 NE 1021,6 43 60 0,0
19.06.2018 19:00:00 23,1 12,7 24,9 28,8 23,3 16,2 8 4 17 9 ENE 1021,5 47 55 0,0
19.06.2018 18:00:00 23,2 11,8 26,6 30,3 22,9 16,2 7 4 16 9 NNE 1021,6 40 58 0,0
19.06.2018 17:00:00 22,9 12,0 26,7 31,0 22,4 16,2 8 4 16 8 NNE 1021,9 70 53 0,0
19.06.2018 16:00:00 22,6 11,8 27,2 30,7 21,8 16,2 8 4 15 8 NNE 1022,3 43 30 0,0
19.06.2018 15:00:00 22,4 11,9 28,6 31,6 21,1 16,2 10 5 19 10 NNE 1022,6 20 57 0,0
19.06.2018 14:00:00 22,1 10,9 27,9 29,9 20,4 16,2 6 3 17 9 W 1023,1 42 56 0,0
19.06.2018 13:00:00 21,4 12,2 25,5 28,6 19,8 16,2 9 5 16 9 W 1023,2 28 55 0,0
19.06.2018 12:00:00 20,2 11,6 24,5 25,5 19,4 16,2 11 6 18 10 WNW 1023,8 27 41 0,0
19.06.2018 11:00:00 20,1 11,6 25,8 23,6 19,1 16,2 6 3 13 7 N 1024,0 24 57 0,0
19.06.2018 10:00:00 18,6 10,2 23,2 20,7 19,0 16,2 4 2 15 8 N 1024,8 65 60 0,0
19.06.2018 09:00:00 17,5 12,1 19,1 18,4 19,1 16,2 3 1 6 3 WSW 1024,9 33 20 0,0
19.06.2018 08:00:00 14,9 11,9 15,7 17,3 19,3 16,2 3 2 6 4 S 1025,4 26 0 0,0
19.06.2018 07:00:00 13,4 12,4 13,2 16,6 19,6 16,1 4 2 6 4 SSE 1025,4 17 0 0,0
19.06.2018 06:00:00 11,5 11,0 11,3 16,4 19,9 16,1 0 0 6 3 N 1025,8 16 0 0,0
19.06.2018 05:00:00 10,3 10,2 9,0 16,7 20,2 16,1 0 0 5 3 N 1026,0 9 0 0,0
19.06.2018 04:00:00 11,3 10,7 8,7 17,4 20,6 16,1 4 2 6 3 SSW 1025,2 8 0 0,0
19.06.2018 03:00:00 11,9 10,9 10,4 18,2 20,9 16,1 4 2 6 4 ESE 1024,9 18 0 0,0
19.06.2018 02:00:00 14,6 11,4 11,1 19,2 21,1 16,1 5 3 7 4 ENE 1024,0 28 0 0,0
19.06.2018 01:00:00 15,1 13,2 13,9 19,8 21,4 16,1 0 0 19 10 N 1023,8 18 0 0,0
19.06.2018 00:00:00 15,3 12,7 14,3 20,4 21,7 16,1 7 4 11 6 SE 1023,4 35 0 0,0
18.06.2018 23:00:00 15,7 13,4 15,0 21,2 21,9 16,1 3 2 10 5 S 1023,1 32 0 0,0
18.06.2018 22:00:00 16,4 14,1 14,5 22,4 22,0 16,1 5 3 7 4 SE 1022,3 23 0 0,0
18.06.2018 21:00:00 18,6 13,4 18,2 23,7 22,0 16,1 7 4 10 5 WSW 1021,3 57 0 0,0
18.06.2018 20:00:00 19,5 13,6 18,9 25,0 21,9 16,1 5 3 7 4 S 1020,8 54 37 0,0
18.06.2018 19:00:00 20,5 10,7 21,2 26,6 21,7 16,1 9 5 14 8 W 1020,6 70 41 0,0
18.06.2018 18:00:00 21,4 10,8 25,6 27,7 21,3 16,1 7 4 14 8 NW 1020,2 60 33 0,0
18.06.2018 17:00:00 20,6 12,0 21,8 29,0 20,8 16,1 9 5 19 11 WSW 1020,5 57 53 0,0
18.06.2018 16:00:00 20,8 11,3 25,2 28,0 20,3 16,1 12 7 24 13 WNW 1020,8 24 55 0,0
18.06.2018 15:00:00 20,2 11,1 25,3 26,5 19,8 16,1 10 5 23 12 NW 1021,2 21 43 0,0
18.06.2018 14:00:00 19,9 12,2 24,7 25,3 19,4 16,1 13 7 20 11 NW 1021,2 24 33 0,0
18.06.2018 13:00:00 18,7 11,8 21,5 24,9 19,0 16,1 10 5 17 9 WNW 1021,9 34 52 0,0
18.06.2018 12:00:00 18,3 11,9 22,5 22,4 18,8 16,1 8 5 18 10 WNW 1021,8 36 27 0,0
18.06.2018 11:00:00 17,4 11,3 19,9 20,8 18,7 16,1 5 3 14 7 WNW 1022,0 38 0 0,0
18.06.2018 10:00:00 16,4 12,2 18,0 19,7 18,6 16,1 6 4 12 7 NW 1022,2 26 2 0,0
18.06.2018 09:00:00 15,7 12,0 16,1 18,6 18,7 16,1 4 2 6 4 NW 1022,4 30 15 0,0
18.06.2018 08:00:00 15,0 13,1 15,2 17,3 18,8 16,1 2 1 6 3 ESE 1022,2 18 0 0,0
18.06.2018 07:00:00 13,8 13,1 13,6 16,9 19,0 16,1 3 2 6 3 NE 1022,2 11 0 0,0
18.06.2018 06:00:00 12,7 12,6 12,3 17,0 19,2 16,1 3 2 4 2 NE 1022,4 6 0 0,0
18.06.2018 05:00:00 13,1 12,4 12,4 17,3 19,4 16,1 3 2 9 5 ENE 1022,0 13 0 0,0
18.06.2018 04:00:00 14,0 12,0 12,9 17,9 19,6 16,1 5 3 12 7 NNW 1021,8 29 0 0,1
18.06.2018 03:00:00 14,4 14,3 14,2 18,1 19,8 16,1 2 1 4 2 SW 1021,5 7 0 0,0
18.06.2018 02:00:00 14,5 14,2 14,0 18,5 20,1 16,1 4 2 9 5 SE 1021,5 7 0 0,0
18.06.2018 01:00:00 14,8 14,5 14,6 18,8 20,3 16,1 6 3 9 5 SSW 1021,4 8 0 0,0
18.06.2018 00:00:00 15,0 14,6 14,8 19,3 20,5 16,1 4 2 7 4 S 1021,1 9 0 0,0
17.06.2018 23:00:00 15,1 14,7 14,7 19,8 20,7 16,1 4 2 5 3 S 1020,7 10 0 0,5
17.06.2018 22:00:00 16,1 13,6 15,2 20,5 20,8 16,1 3 2 9 5 W 1020,0 10 0 0,0
17.06.2018 21:00:00 16,6 13,4 16,2 21,3 21,0 16,1 5 3 19 11 NE 1019,0 37 0 0,0
17.06.2018 20:00:00 17,8 13,1 17,7 22,2 21,0 16,1 13 7 21 11 NW 1018,3 32 0 0,0
17.06.2018 19:00:00 18,0 15,2 18,3 23,3 21,0 16,1 9 5 16 9 S 1017,4 33 2 0,0
17.06.2018 18:00:00 19,1 12,0 20,3 23,9 20,8 16,1 11 6 23 12 WNW 1016,9 47 0 0,0
17.06.2018 17:00:00 20,1 12,6 20,2 25,8 20,4 16,1 14 8 21 11 NW 1016,2 45 9 0,0
17.06.2018 16:00:00 21,6 11,3 25,2 26,5 20,0 16,1 8 4 19 10 NNW 1015,7 51 35 0,0
17.06.2018 15:00:00 20,9 12,8 24,9 25,8 19,6 16,1 14 8 24 13 NW 1016,2 17 35 0,0
17.06.2018 14:00:00 20,1 12,3 22,8 25,3 19,1 16,1 9 5 21 12 NW 1016,6 32 25 0,0
17.06.2018 13:00:00 21,1 13,5 25,8 24,4 18,7 16,1 5 3 18 10 W 1016,7 31 24 0,0
17.06.2018 12:00:00 19,9 12,7 25,1 23,2 18,4 16,1 6 3 14 8 WNW 1017,1 32 42 0,0
17.06.2018 11:00:00 18,4 13,5 20,1 21,5 18,1 16,1 10 5 15 8 WNW 1017,6 21 17 0,0
17.06.2018 10:00:00 18,2 13,2 22,0 19,8 18,0 16,1 6 4 19 10 W 1017,6 22 58 0,0
17.06.2018 09:00:00 17,1 12,8 20,1 17,6 18,1 16,1 15 8 21 11 SW 1017,7 16 60 0,0
17.06.2018 08:00:00 15,2 10,9 16,2 15,6 18,3 16,1 8 4 14 8 W 1017,8 25 37 0,0
17.06.2018 07:00:00 12,4 9,7 11,2 15,1 18,6 16,1 5 3 12 6 S 1018,0 33 32 0,0
17.06.2018 06:00:00 9,9 8,7 8,7 15,2 18,9 16,1 4 2 11 6 SSE 1018,7 16 0 0,0
17.06.2018 05:00:00 11,2 9,6 9,4 15,7 19,2 16,1 5 3 9 5 SSE 1017,5 30 0 0,0
17.06.2018 04:00:00 10,9 9,5 8,5 16,4 19,5 16,1 3 2 10 6 SSW 1017,7 23 0 0,0
17.06.2018 03:00:00 12,4 9,9 11,4 16,7 19,8 16,1 5 3 12 7 S 1017,3 31 0 0,0
17.06.2018 02:00:00 12,2 10,1 9,9 17,2 20,2 16,1 6 3 14 7 S 1017,3 30 0 0,0
17.06.2018 01:00:00 12,6 10,6 10,6 17,9 20,5 16,1 6 3 10 5 SE 1017,3 33 0 0,0
17.06.2018 00:00:00 11,9 10,5 9,8 18,8 20,8 16,1 4 2 8 4 ESE 1017,3 25 0 0,0
16.06.2018 23:00:00 13,4 11,9 10,6 20,0 21,1 16,1 6 3 8 5 SSE 1016,9 27 0 0,0
16.06.2018 22:00:00 15,1 12,2 12,2 21,5 21,2 16,1 5 3 8 4 SSW 1015,8 37 8 0,0
16.06.2018 21:00:00 19,8 10,6 16,5 23,0 21,2 16,1 3 2 8 4 NNE 1013,9 69 59 0,0
16.06.2018 20:00:00 21,5 9,2 21,2 24,4 21,1 16,1 5 3 13 7 NNW 1013,2 69 60 0,0
16.06.2018 19:00:00 22,4 8,7 22,8 25,7 20,8 16,1 5 3 14 8 WNW 1012,9 70 59 0,0
16.06.2018 18:00:00 22,7 7,2 24,1 27,1 20,3 16,1 4 2 15 8 WSW 1012,6 70 60 0,0
16.06.2018 17:00:00 23,0 8,1 26,1 28,2 19,7 16,1 5 3 18 10 E 1012,5 45 60 0,0
16.06.2018 16:00:00 22,8 9,0 26,2 28,0 19,1 16,1 5 3 19 10 W 1012,8 46 60 0,0
16.06.2018 15:00:00 22,4 6,7 26,6 27,3 18,4 16,1 4 2 16 9 E 1013,3 56 60 0,0

tt = temperature
td = dewpoint
tt 5cm = temperature 5cm
tt -5cm = temperature -5cm
tt -20cm = temperature -20cm
tt -100cm = temperature -100cm
ff = wind speed
fx = gusts
dd = wind direction
ppp = reduced air pressure
vv = visibility
sd = sunshine duration
rr = precipitation

Next stations